Weather History for KTAD - September, 2012

Change the Weather History Date:

Sunday, September 23, 2012

  Actual Average Record
Temperature  
Mean Temperature 65 °F 61 °F  
Max Temperature 88 °F 77 °F 89 °F (1953)
Min Temperature 42 °F 46 °F 32 °F (2004)
Degree Days  
Heating Degree Days 0 5  
Month to date heating degree days 41 57  
Since 1 July heating degree days 41 67  
Cooling Degree Days 0 1  
Month to date cooling degree days 85 69  
Year to date cooling degree days 1170 711  
Growing Degree Days 14 (Base 50)    
Moisture  
Dew Point 31 °F    
Average Humidity 40    
Maximum Humidity 70    
Minimum Humidity 9    
Precipitation  
Precipitation 0.00 in 0.03 in 1.08 in (1988)
Month to date precipitation 0.58 1.02  
Year to date precipitation 11.48  
Sea Level Pressure  
Sea Level Pressure 30.04 in    
Wind  
Wind Speed 8 mph (SW)    
Max Wind Speed 15 mph    
Max Gust Speed 20 mph    
Visibility 10 miles    
Events      
T = Trace of Precipitation, MM = Missing Value Source: NWS Daily Summary

Daily Weather History Graph

Daily Weather History Graph

Search for Another Location

Airport or City:

Trip Planner

Search our weather history database for the weather conditions in past years. The results will help you decide how hot, cold, wet, or windy it might be!

Date:

Astronomy

Sep. 23, 2012 Rise Set
Actual Time 6:46 AM MDT 6:51 PM MDT
Civil Twilight 6:20 AM MDT 7:17 PM MDT
Nautical Twilight 5:50 AM MDT 7:48 PM MDT
Astronomical Twilight 5:19 AM MDT 8:18 PM MDT
Moon 2:48 PM MDT (9/23) 12:08 AM MDT (9/23)
Length of Visible Light 12h 57m
Length of Day
12h 05m
First Quarter, 60% of the Moon is Illuminated
Sep 23
First Quarter
Sep 29
Full
Oct 8
Last Quarter
Oct 15
New
Oct 21
First Quarter

Hourly Weather History & Observations

Time (MDT) Temp. Windchill Dew Point Humidity Pressure Visibility Wind Dir Wind Speed Gust Speed Precip Events Conditions
12:54 AM 55.0 °F - 34.0 °F 45% 30.05 in 10.0 mi WNW 9.2 mph - N/A   Clear
1:54 AM 55.9 °F - 36.0 °F 47% 30.06 in 10.0 mi NW 12.7 mph - N/A   Clear
2:54 AM 54.0 °F - 35.1 °F 49% 30.06 in 10.0 mi WNW 11.5 mph - N/A   Clear
3:54 AM 53.1 °F - 35.1 °F 50% 30.06 in 10.0 mi WNW 11.5 mph - N/A   Clear
4:54 AM 51.1 °F - 34.0 °F 52% 30.06 in 10.0 mi West 9.2 mph - N/A   Clear
5:54 AM 45.0 °F 41.8 °F 34.0 °F 65% 30.09 in 10.0 mi SW 5.8 mph - N/A   Clear
6:54 AM 43.0 °F 39.5 °F 34.0 °F 71% 30.13 in 10.0 mi NW 5.8 mph - N/A   Clear
7:54 AM 51.1 °F - 35.1 °F 54% 30.12 in 10.0 mi SW 4.6 mph - N/A   Clear
8:54 AM 61.0 °F - 35.1 °F 38% 30.12 in 10.0 mi South 5.8 mph - N/A   Clear
9:54 AM 66.0 °F - 34.0 °F 30% 30.10 in 10.0 mi Calm Calm - N/A   Clear
10:22 AM 68.0 °F - 35.6 °F 30% 30.28 in 2.0 mi Variable 4.6 mph - N/A   Haze
10:31 AM 69.8 °F - 35.6 °F 28% 30.28 in 10.0 mi SSE 4.6 mph - N/A   Clear
10:54 AM 71.1 °F - 35.1 °F 27% 30.07 in 10.0 mi SSE 5.8 mph - N/A   Clear
11:54 AM 79.0 °F - 32.0 °F 18% 30.03 in 10.0 mi ENE 3.5 mph - N/A   Clear
12:54 PM 82.0 °F - 28.9 °F 14% 30.00 in 10.0 mi SE 9.2 mph - N/A   Clear
1:54 PM 84.0 °F - 27.0 °F 13% 29.97 in 10.0 mi ESE 8.1 mph - N/A   Clear
2:54 PM 86.0 °F - 21.9 °F 10% 29.96 in 10.0 mi South 6.9 mph - N/A   Clear
3:54 PM 86.0 °F - 21.9 °F 10% 29.94 in 10.0 mi ESE 8.1 mph - N/A   Clear
4:54 PM 82.9 °F - 21.0 °F 10% 29.94 in 10.0 mi ESE 6.9 mph - N/A   Clear
5:54 PM 80.1 °F - 28.0 °F 15% 29.97 in 10.0 mi SE 9.2 mph - N/A   Clear
6:54 PM 77.0 °F - 27.0 °F 16% 29.99 in 10.0 mi South 5.8 mph - N/A   Clear
7:54 PM 73.9 °F - 26.1 °F 17% 29.98 in 10.0 mi South 6.9 mph - N/A   Clear
8:54 PM 72.0 °F - 28.0 °F 20% 29.97 in 10.0 mi WNW 8.1 mph - N/A   Clear
9:54 PM 68.0 °F - 28.9 °F 23% 29.97 in 10.0 mi West 3.5 mph - N/A   Clear
10:54 PM 66.9 °F - 27.0 °F 22% 29.95 in 10.0 mi WNW 11.5 mph - N/A   Clear
11:54 PM 61.0 °F - 28.9 °F 30% 29.94 in 10.0 mi WSW 9.2 mph - N/A   Clear